Location: Baix
(44.7118°N, 4.7648°E)
Time: 11:20:24
(UTC+00:00)

Cosmos 2322 Rocket - Pass Details

Date: 04 December 2022
Orbit: 834 x 849 km, 71.0° (Epoch: 29 January)

Event Time Altitude Azimuth Distance (km) Brightness Sun altitude
Rises 06:23:09 0° 194° (SSW) 3,387 5.5 -6.8°
Reaches altitude 10° 06:25:36 10° 191° (S) 2,454 4.8 -6.4°
Maximum altitude 06:31:09 64° 111° (ESE) 931 2.8 -5.5°
Drops below altitude 10° 06:36:44 10° 31° (NNE) 2,460 4.7 -4.6°
Sets 06:39:11 0° 29° (NNE) 3,396 5.4 -4.2°
